SORCE 1 27651U 03004A 21018.84996475 .00000055 00000-0 19881-4 0 9993 2 27651 39.9937 208.7516 0020932 94.3750 265.9431 14.89221132976359 PEGASUS R/B 1 27652U 03004B 21018.59643706 .00000007 00000-0 15648-4 0 9996 2 27652 40.0063 337.2975 0022072 275.5470 84.2801 14.85654301974893